Location: Epalinges
(46.5518°N, 6.6683°E)
Time: 19:54:16
(UTC+00:00)

Nadezhda 4 Rocket - Pass Details

Date: 20 June 2021
Orbit: 950 x 991 km, 82.9° (Epoch: 01 August)

Event Time Altitude Azimuth Distance (km) Brightness Sun altitude
Exits shadow 00:30:50 27° 165° (SSE) 1,735 4.8 -18.9°
Maximum altitude 00:34:11 63° 93° (E) 1,061 4.2 -18.7°
Drops below altitude 10° 00:40:13 10° 14° (NNE) 2,687 7.6 -18.5°
Sets 00:42:44 0° 12° (NNE) 3,636 8.7 -18.3°
